Location: Del Amo
(33.8464°N, 118.2104°W)
Time: 23:08:33
(UTC+00:00)

STRAND 1 - Visible Passes

Search period start: 13 January 2026 00:00
Search period end: 23 January 2026 00:00
Orbit: 762 x 774 km, 98.4° (Epoch: 13 January)

Date Brightness Start Highest point End Pass type
(mag) Time Alt. Az. Time Alt. Az. Time Alt. Az.
13 Jan ? 02:19:06 10° N 02:23:56 44° WNW 02:28:46 10° SW visible
13 Jan ? 11:53:05 10° ESE 11:56:15 17° ENE 11:58:40 12° NE visible
13 Jan ? 13:30:00 10° S 13:34:52 48° W 13:38:56 15° NNW visible
14 Jan ? 01:43:02 10° NNE 01:48:11 80° ESE 01:53:18 10° S visible
14 Jan ? 03:25:42 10° NW 03:26:30 10° WNW 03:27:19 10° WNW visible
14 Jan ? 12:53:57 10° SSE 12:58:59 72° ENE 13:02:42 19° N visible
15 Jan ? 02:47:02 10° NNW 02:51:04 24° WNW 02:55:05 10° WSW visible
15 Jan ? 12:18:54 10° SE 12:23:18 31° ENE 12:26:27 17° NNE visible
15 Jan ? 13:58:11 10° SSW 14:02:18 25° W 14:06:27 10° NW visible
16 Jan ? 02:10:27 10° N 02:15:26 54° WNW 02:20:25 10° SSW visible
16 Jan ? 11:45:17 10° E 11:47:48 14° ENE 11:50:13 10° NE visible
16 Jan ? 13:21:19 10° S 13:26:18 59° W 13:30:29 15° NNW visible
17 Jan ? 01:34:32 10° NNE 01:39:38 65° ESE 01:44:42 10° S visible
17 Jan ? 03:15:52 10° NW 03:18:05 13° WNW 03:20:17 10° W visible
17 Jan ? 12:45:30 10° SSE 12:50:28 59° ENE 12:54:16 17° N visible
17 Jan ? 14:27:41 10° WSW 14:29:50 13° W 14:32:00 10° WNW visible
18 Jan ? 02:38:15 10° NNW 02:42:36 29° WNW 02:46:56 10° SW visible
18 Jan ? 12:10:42 10° ESE 12:14:49 26° ENE 12:18:03 14° NNE visible
18 Jan ? 13:49:16 10° SSW 13:53:42 30° W 13:58:09 10° NW visible
19 Jan ? 02:01:50 10° N 02:06:56 66° WNW 02:11:59 10° SSW visible
19 Jan ? 11:37:51 10° E 11:39:22 11° ENE 11:40:53 10° NE visible
19 Jan ? 13:12:41 10° S 13:17:44 73° WSW 13:22:08 14° NNW visible
20 Jan ? 03:06:41 10° NNW 03:09:39 16° WNW 03:12:36 10° W visible
20 Jan ? 12:37:06 10° SE 12:41:57 48° ENE 12:45:57 15° N visible
20 Jan ? 14:18:12 10° SW 14:21:12 16° W 14:24:14 10° WNW visible
21 Jan ? 02:29:30 10° N 02:34:06 34° WNW 02:38:42 10° SW visible
21 Jan ? 12:02:35 10° ESE 12:06:21 21° ENE 12:09:46 11° NNE visible
21 Jan ? 13:40:27 10° SSW 13:45:06 37° W 13:49:49 10° NNW visible
22 Jan ? 01:53:15 10° N 01:58:24 81° WNW 02:03:31 10° SSW visible
22 Jan ? 13:04:06 10° SSE 13:09:11 88° W 13:13:53 12° NNW visible
